Voltar ao catálogo

STARLINK-36235

AtivoComunicaçõesSSO
NORAD 68400·PAYLOAD·🇺🇸 United States

Lançado Mar 26, 2026 de Vandenberg Space Force Base

Loading…

Próximas Passagens (próximas 24 horas)

TLE

AtualizadoSource: CelesTrak SupGP

Época: Sep 15, 2026, 04:21 UTC

1 68400C 26063W   26258.18173611  .00018606  00000+0  57772-3 0  2585
2 68400  97.2854  39.1412 0001630  72.5122 335.1552 15.33421438    13

Acompanhe STARLINK-36235 em tempo real com AllMySat

Download on the App Store